Lunenburg, Nouvelle Écosse

Conditions des dernières 24 heures

Ce tableau est un sommaire des conditions météo couvrant les dernières 24 heures. Ce sommaire inclut les paramètres suivants: température, humidité, point de rosée, direction et vitesse du vent, pression barométrique, facteur de refroidissement éolien ou indice humidex.
Date / Heure
(HAA)
Conditions Temp (°C) Humidite (%) Point de rose (°C) Vent (km/h) Pression (kPa) Vis (km) Humidex
20 août 2014
21:00 N.D. 21 71 16 NE 5 101,7 N.D. 25
20:00 N.D. 24 54 14 N 5 101,6 N.D. 27
19:00 N.D. 26   49 14 N 13 101,5 N.D. 29
18:00 N.D. 24 63 17 SO 6 101,5 N.D. 29
17:00 N.D. 23 70 17 SSO 16 101,5 N.D. 29
16:00 N.D. 24 64 17 SO 12 101,4 N.D. 29
15:00 N.D. 25 52 15 NO 13 101,4 N.D. 29
14:00 N.D. 24 59 16 ONO 11 101,5 N.D. 28
13:00 N.D. 24 55 14 ONO 15 101,5 N.D. 27
12:00 N.D. 24 56 14 ONO 19 101,5 N.D. 27
11:00 N.D. 22 66 15 ONO 15 101,5 N.D. 26
10:00 N.D. 20 74 15 ONO 15 101,5 N.D. *
9:00 N.D. 19 80 15 NNO 13 101,5 N.D. *
8:00 N.D. 17 87 14 ONO 13 101,4 N.D. *
7:00 N.D. 16   90 14 ONO 12 101,4 N.D. *
6:00 N.D. 16   88 14 ONO 15 101,3 N.D. *
5:00 N.D. 16   88 14 ONO 18 101,3 N.D. *
4:00 N.D. 17 88 15 O 15 101,3 N.D. *
3:00 N.D. 17 86 14 ONO 16 101,2 N.D. *
2:00 N.D. 17 85 14 ONO 17 101,2 N.D. *
1:00 N.D. 17 84 15 ONO 20 101,2 N.D. *
0:00 N.D. 18 82 14 ONO 18 101,2 N.D. *
19 août 2014
23:00 N.D. 18 83 15 O 14 101,2 N.D. *
22:00 N.D. 19 78 15 ONO 15 101,2 N.D. *
21:00 N.D. 20 75 15 ONO 10 101,1 N.D. *
N.D.
non disponible
 ↑ 
température la plus haute
 ↓ 
température la plus basse
*
Valeur non significative.

Si vous désirez plus de données historiques sur les conditions météo, s.v.p. visitez Données climatologiques en ligne.